Regional Weather Roundup
Issued by NWS Wakefield, VA

Home | Current Version | Previous Version | Graphics & Text | Print | Product List | Glossary On
Versions: 1 2 3 4 5 6 7 8 9 10 11 12 13 14 15 16 17 18 19 20 21 22 23 24 25 26 27 28 29 30 31 32 33 34 35 36 37 38 39 40 41
000
ASUS41 KAKQ 211710
RWRAKQ

REGIONAL WEATHER ROUNDUP
NATIONAL WEATHER SERVICE WAKEFIELD VA
100 PM EDT TUE OCT 21 2014

Note: "fair" indicates few or no clouds below 12,000 feet with no
significant weather and/or obstructions to visibility. * = Denotes
station may not report precipitation (e.g., rain,snow,etc.),
thunder or fog.

VAZ042-051-052>054-056-211800-
NORTHERN VIRGINIA

CITY           SKY/WX    TMP DP  RH WIND       PRES   REMARKS
WASH NATIONAL  MOSUNNY   70  48  45 E5        29.84
DULLES         MOSUNNY   66  47  50 VRB5      29.84F
FORT BELVOIR   SUNNY     65  51  60 CALM      29.87S
QUANTICO       MOSUNNY   65  53  65 SE3       29.85F
FREDERICKSBRG* MOSUNNY   71  46  41 NW6       29.84F
STAFFORD*      SUNNY     69  45  42 CALM      29.88F
WARRENTON      SUNNY     72  53  51 NW3       29.83F
CULPEPER*      MOSUNNY   70  46  43 N5        29.85F
MANASSAS*      MOSUNNY   66  50  55 CALM      29.84
LEESBURG*      PTSUNNY   68  50  52 NW9       29.85F
WINCHESTER     CLOUDY    63  43  48 NW3       29.85F
FRONT ROYAL*   CLOUDY    63  46  55 CALM      29.84F
LURAY*         CLOUDY    68  48  49 SW9       29.84F
$$

VAZ048-049-060>072-079>083-211800-
CENTRAL AND SOUTH CENTRAL VIRGINIA...AND NORTH CENTRAL NORTH CAROLINA

CITY           SKY/WX    TMP DP  RH WIND       PRES   REMARKS
RICHMOND       MOSUNNY   72  48  42 CALM      29.85F
CHESTERFIELD*  SUNNY    N/A N/A N/A NW10      29.86F
PETERSBURG*    SUNNY     71  47  42 SW7       29.86F
HANOVER        SUNNY     70  49  47 W5        29.86F
TAPPAHANNOCK*  SUNNY     71  41  33 SW3       29.85F
CHARLOTTSVILLE MOSUNNY   68  47  46 VRB5      29.84F
ORANGE*        SUNNY     70  46  43 S3        29.86F
LOUISA*        SUNNY     68  48  49 CALM      29.84F
FARMVILLE*     SUNNY     70  48  46 W3        29.84F
CREWE*         MOSUNNY   69  48  47 W6        29.86F
FORT PICKETT*  MOSUNNY   70  49  47 W8        29.86F
LUNENBURG*     MOSUNNY   69  52  55 W5        29.86F
SOUTH HILL*    SUNNY     73  52  46 W9        29.92F
LAWRENCEVILLE* SUNNY     69  51  52 NW5       29.86F
ROANOKE RAPIDS SUNNY     70  50  49 SW7       29.88F
RALEIGH        MOSUNNY   71  48  43 SW9       29.90F
$$

VAZ088>098-211800-
SOUTHEAST VIRGINIA

CITY           SKY/WX    TMP DP  RH WIND       PRES   REMARKS
NORFOLK        SUNNY     72  51  47 VRB6      29.85F
VIRGINIA BEACH MOSUNNY   74  54  49 SW12G18   29.84F
NORFOLK NAVAL  MOSUNNY   73  53  49 W12       29.85F
WEST POINT*    SUNNY     73  47  39 W5        29.86F
NEWPORT NEWS   SUNNY     74  52  46 SW9       29.85F
LANGLEY AFB    SUNNY     70  53  53 SW8       29.84F
FORT EUSTIS    SUNNY     70  53  53 VRB5      29.83F
WILLIAMSBURG*  SUNNY     73  50  43 W5        29.86F
HR EXEC AP*    SUNNY     72  54  53 W8        29.87F
FRANKLIN*      SUNNY     72  50  46 SW9       29.86F
WAKEFIELD      SUNNY     72  50  45 W10G17    29.85F
$$

VAZ020-022-025-037-045-211800-
WEST CENTRAL AND SOUTHWEST VIRGINIA

CITY           SKY/WX    TMP DP  RH WIND       PRES   REMARKS
STAUNTON*      CLOUDY    64  44  47 SW5       29.87F
HOT SPRINGS VA CLOUDY    49  45  87 W13       29.89F
LYNCHBURG      MOSUNNY   67  47  48 W9G17     29.89F
DANVILLE       MOSUNNY   69  49  48 W8        29.89F
SOUTH BOSTON*  NOT AVBL
MARTINSVILLE   MOSUNNY   69  46  43 W6        29.92F
ROANOKE        CLOUDY    62  45  53 SW7       29.91F
BLACKSBURG     CLOUDY    57  50  77 W3        29.94S
DUBLIN*        CLOUDY    57  47  69 W10       29.94S
MARION*        CLOUDY    56  46  70 W15G21    29.97S
HILLSVILLE*    CLOUDY    56  43  61 W12       29.95S
RICHLANDS*     CLOUDY    57  47  68 W13       29.98S
WISE*          CLOUDY    52  41  66 W9G20     30.02S
ABINGDON*      CLOUDY    58  48  70 W8        29.98F
$$

MDZ021>025-VAZ099-100-211800-
SOUTHERN MARYLAND AND THE DELMARVA PENINSULA

CITY           SKY/WX    TMP DP  RH WIND       PRES   REMARKS
PATUXENT RIVER MOSUNNY   68  48  48 NE8       29.85F
BAY BRIDGE APT   N/A     64  46  52 CALM      29.85F
LEONARDTOWN    SUNNY     68  46  45 NE3       29.86F
DOVER          MOSUNNY   68  53  59 NE8       29.82F
GEORGETOWN     MOSUNNY   69  51  52 VRB7      29.84F
EASTON         MOSUNNY   68  50  52 NE5       29.88F
CAMBRIDGE      SUNNY     70  50  49 NW6       29.84F
SALISBURY      FAIR      73  52  47 N6        29.84F
OCEAN CITY     PTSUNNY   70  55  59 W8        29.83F
WALLOPS ISLAND MOSUNNY   71  55  56 NW8       29.84F
ACCOMACK*      SUNNY     70  50  49 NW6       29.84F
$$

NCZ012>017-030>032-211800-
EASTERN NORTH CAROLINA

CITY           SKY/WX    TMP DP  RH WIND       PRES   REMARKS
ELIZABETH CITY SUNNY     75  54  47 SW13      29.85F
AHOSKIE*       SUNNY     70  51  50 SW3       29.87F
EDENTON*       SUNNY     73  55  54 W5        29.87F
CURRITUCK*     SUNNY     74  50  43 SW7       29.86F
KILL DEVIL HLS SUNNY     72  54  53 W6        29.85F
MANTEO         SUNNY     71  55  56 CALM      29.87F
CAPE HATTERAS  SUNNY     71  60  68 W7        29.89F
TARBORO*       SUNNY     73  53  50 W8        29.88F
GOLDSBORO      SUNNY     73  59  61 W5        29.86F
WASHINGTON     SUNNY     73  53  50 W6        29.88F
GREENVILLE     SUNNY     73  54  49 W9        29.90F
NEW BERN       SUNNY     77  53  43 SW7       29.88F
WILMINGTON     SUNNY     76  52  43 W9        29.89F
$$

VAZ048-211800-
ELSEWHERE

CITY           SKY/WX    TMP DP  RH WIND       PRES   REMARKS
HARRISBURG PA  MOSUNNY   60  51  72 W7        29.84F
BALTIMORE      MOSUNNY   66  48  52 W9        29.83F
ANNAPOLIS      MOSUNNY   63  53  70 SE8       29.84F
ANDREWS AFB    MOSUNNY   68  47  46 NW2       29.84F
WILMINGTON DE  MOSUNNY   67  49  52 SW5       29.85F
PHILADELPHIA   MOSUNNY   67  49  52 CALM      29.84F
WILDWOOD NJ*   PTSUNNY   64  52  63 NW7       29.85F
ATLANTIC CITY  CLOUDY    66  53  63 W5        29.84F
HENDERSON NC   SUNNY     70  49  47 SW7       29.89F
GREENSBORO     MOSUNNY   68  47  46 W13       29.90F
ROCKY MOUNT    SUNNY     72  50  45 W6        29.88F
FAYETTEVILLE   SUNNY     74  51  44 VRB6      29.89F
CHARLOTTE      MOSUNNY   72  46  39 NW5       29.93F
$$

VAZ100-211800-
MARINE

STATION/POSITION TIME  TEMP    WIND        PRES    WAVE   SWELL
                       AIR SEA DIR/SP/G            HT/PER HT/PER
                 (UTC) (F)     (DEG/KT/KT) (MB)    (FT/S) (FT/S)
44066 TX TWR #4  1700   66 66  180/  6/  8 1011.6F   3/ 6   3/ 6
CAPE MAY NJ      1700   63 67  350/  5/  7 1010.2F
LEWES DE         1700   65 63  330/  4/  5 1010.2F
15NM E FENWICK I 1700   67 66  240/  4/  4 1010.4F   3/ 6   2/ 6
OCEAN-CITY-INLET 1700   69 66  180/  7/  8 1010.0F
WACHAPREAGUE VA  1700   71 63  240/  6/  9 1010.4F
THOMAS POINT MD  1700   61 64  130/  4/  4 1011.5F
GOOSES REEF MD   1700   62      60/  2/  2 1011.6F
COVE POINT MD    1700   62      10/  4/  5 1010.7F
SOLOMONS ISLAND  1700      66                N/A
BISHOPS HEAD MD  1700   62 60  260/  5/  5 1010.2F
PINEY POINT MD   1700          310/  4/  5   N/A
POTOMAC MD       1700   62     290/  6/  8 1010.2F
CAMBRIDGE MD     1700   64 63  320/  4/  6 1010.4F
LEWISETTA VA     1700   63 63   50/  5/  6 1010.4F
RAPPAHANNOCK LGT 1700          290/  4/  5 1011.3F
STINGRAY PT      1700   65     300/  6/  8 1011.5F
YORK RVR RNG VA  1700   68     280/  5/  6 1010.4F
YORKTOWN VA      1700   68 67  260/  6/  9 1010.6S
JAMESTOWN VA     1700   64     350/  6/  8   N/A
DOMINION TERM VA 1700   65     280/  3/  4 1011.2F
KIPTOPEKE VA     1700      69  260/  5/  7   N/A
CHES BAY BRIDGE  1700   65 67  270/  9/ 11 1010.4F
CHESAPEAKE LGHT  1600   69     240/  7/  7 1011.9F
WILLOUBY STN VA  1700   66     270/  9/  9 1009.7F
S CRANEY ISL VA  1700          250/  8/ 12 1010.7F
CAPE HENRY BUOY  1700      69                N/A     2/ 5
1ST LANDING BUOY 1700   66     300/ 10/ 10 1010.7F
CAPE CHARLES BUO 1700      69                N/A     2/11   2/11
64NM E OF VA BCH 1700   68 69  250/  8/ 10 1010.7F   3/ 5   2/ 5
DUCK PIER NC     1700   69 69  230/  8/ 10 1010.6F
44100 DUCK FRF   1700      71                N/A     2/10
44056 DUCK FRF   1700                        N/A     2/10
OREGON INLET NC  1700   69 66  190/  4/  6 1011.6F
HATTERAS NC      1700   70 71  260/  6/  8 1012.6F
DIAMOND SHLS NC  1700   71     250/ 10/ 12 1012.5F   3/10   2/10
CAPE LOOKOUT NC  1600   72     290/  5/  7 1012.9F
$$



USA.gov is the U.S. government's official web portal to all federal, state and local government web resources and services.